Location: Trebic
(49.2170°N, 15.8830°E)
Time: 21:57:13
(UTC+02:00)

Transit 2A Rocket - Pass Details

Date: 25 July 2019
Orbit: 590 x 913 km, 66.7° (Epoch: 16 August)

Event Time Altitude Azimuth Distance (km) Brightness Sun altitude
Rises 11:28:34 0° 323° (NW) 3,189 7.9 54.9°
Reaches altitude 10° 11:31:02 10° 324° (NW) 2,209 7.2 55.2°
Maximum altitude 11:36:03 88° 234° (SW) 676 5.9 55.7°
Drops below altitude 10° 11:40:35 10° 147° (SSE) 2,011 7.9 56.2°
Sets 11:42:45 0° 147° (SSE) 2,881 8.5 56.4°
